Destiny

operational
NORAD ID: 26700 Int'l Des: 2001-006 Owner: JSC Country: US
LEOCIRCULAR

Über Destiny

Beschreibung wird geladen...

Live-Position

3D-Globus wird geladen...

Nächste Überflüge

Höhenverlauf

Altitude vs Time

uPlot chart will show altitude changes over time

Zweizeiliger Elementsatz

1 26700U 01006B 26062.44686659 .00009386 00000-0 18180-3 0 9993
2 26700 51.6317 103.2200 0008211 152.5429 207.5995 15.48418100555046
Epoch: 3. März 2026 • Age: 26 hours

Aktueller Status

Höhe 425.3 km
Geschwindigkeit 7.66 km/s
Subsatellitenpunkt 16.07°N, 83.29°W
Startdatum 7. Feb. 2001
Alter 25 years
Typ other

Technische Details

Klassifizierung Payload
Masse 13547.00 kg
Trockenmasse 11300.00 kg
Gesamtmasse 13547.00 kg
Länge 9.20 m
Durchmesser 4.40 m
Spannweite 9.20 m
Form Cyl
Hersteller BOHSV
Bus-Typ ISS Module
Phasenstatus Attached
Besitzer/Staat JSC/US

Große Konstellationen

Loading constellations...